Time,TemperatureF,DewpointF,PressureIn,WindDirection,WindDirectionDegrees,WindSpeedMPH,WindSpeedGustMPH,Humidity,HourlyPrecipIn,Conditions,Clouds,dailyrainin,SoftwareType,DateUTC
2014-02-12 00:00:00,-0.8,-10.1,30.01,ENE,68,0.0,1.0,64,0.00,,,0.00,Wunderground v.1.15,2014-02-12 09:00:00,
2014-02-12 00:05:00,-1.0,-10.3,30.01,East,92,1.0,8.0,64,0.00,,,0.00,Wunderground v.1.15,2014-02-12 09:05:00,
2014-02-12 00:15:00,0.1,-10.5,30.01,East,80,5.0,6.0,60,0.00,,,0.00,Wunderground v.1.15,2014-02-12 09:15:00,
2014-02-12 00:25:00,-0.8,-10.7,30.01,East,83,2.0,3.0,62,0.00,,,0.00,Wunderground v.1.15,2014-02-12 09:25:00,
2014-02-12 00:30:00,-1.0,-10.9,30.01,ENE,63,2.0,4.0,62,0.00,,,0.00,Wunderground v.1.15,2014-02-12 09:30:00,
2014-02-12 00:40:00,-1.8,-11.7,30.01,ENE,59,6.0,7.0,62,0.00,,,0.00,Wunderground v.1.15,2014-02-12 09:40:00,
2014-02-12 00:50:00,-2.0,-11.5,30.00,ENE,60,7.0,7.0,63,0.00,,,0.00,Wunderground v.1.15,2014-02-12 09:50:00,
2014-02-12 00:59:00,-2.6,-11.8,29.99,NNE,30,4.0,4.0,64,0.00,,,0.00,Wunderground v.1.15,2014-02-12 09:59:00,
2014-02-12 01:05:00,-3.1,-12.3,29.99,NNE,25,4.0,4.0,64,0.00,,,0.00,Wunderground v.1.15,2014-02-12 10:05:00,
2014-02-12 01:15:00,-3.3,-12.1,29.99,NNE,13,2.0,5.0,65,0.00,,,0.00,Wunderground v.1.15,2014-02-12 10:15:00,
2014-02-12 01:20:00,-3.5,-12.3,29.99,North,358,4.0,7.0,65,0.00,,,0.00,Wunderground v.1.15,2014-02-12 10:20:00,
2014-02-12 01:30:00,-3.1,-12.3,29.98,NNE,23,8.0,10.0,64,0.00,,,0.00,Wunderground v.1.15,2014-02-12 10:30:00,
2014-02-12 01:35:00,-2.6,-11.8,29.98,ENE,57,8.0,10.0,64,0.00,,,0.00,Wunderground v.1.15,2014-02-12 10:35:00,
2014-02-12 01:45:00,-2.2,-11.7,29.99,NNE,29,3.0,5.0,63,0.00,,,0.00,Wunderground v.1.15,2014-02-12 10:45:00,
2014-02-12 01:55:00,-2.2,-12.4,29.99,NNE,16,3.0,4.0,61,0.00,,,0.00,Wunderground v.1.15,2014-02-12 10:55:00,
2014-02-12 02:05:00,-2.8,-12.6,29.99,NNW,347,4.0,6.0,62,0.00,,,0.00,Wunderground v.1.15,2014-02-12 11:05:00,
2014-02-12 02:14:00,-3.5,-13.3,29.99,NNW,348,1.0,3.0,62,0.00,,,0.00,Wunderground v.1.15,2014-02-12 11:14:00,
2014-02-12 02:20:00,-3.7,-13.5,29.99,North,356,2.0,3.0,62,0.00,,,0.00,Wunderground v.1.15,2014-02-12 11:20:00,
2014-02-12 02:30:00,-3.5,-13.6,29.98,NE,42,3.0,3.0,61,0.00,,,0.00,Wunderground v.1.15,2014-02-12 11:30:00,
2014-02-12 02:40:00,-3.7,-13.5,29.98,NE,52,3.0,3.0,62,0.00,,,0.00,Wunderground v.1.15,2014-02-12 11:40:00,
2014-02-12 02:50:00,-3.5,-13.0,29.98,NE,54,3.0,3.0,63,0.00,,,0.00,Wunderground v.1.15,2014-02-12 11:50:00,
2014-02-12 03:00:00,-3.5,-13.3,29.98,ENE,64,3.0,5.0,62,0.00,,,0.00,Wunderground v.1.15,2014-02-12 12:00:00,
2014-02-12 03:10:00,-3.5,-13.3,29.98,ENE,59,4.0,4.0,62,0.00,,,0.00,Wunderground v.1.15,2014-02-12 12:10:00,
2014-02-12 03:15:00,-3.7,-13.5,29.97,NE,53,4.0,6.0,62,0.00,,,0.00,Wunderground v.1.15,2014-02-12 12:15:00,
2014-02-12 03:25:00,-4.1,-14.2,29.97,NE,54,5.0,6.0,61,0.00,,,0.00,Wunderground v.1.15,2014-02-12 12:25:00,
2014-02-12 03:40:00,-3.7,-14.1,29.97,NE,35,3.0,3.0,60,0.00,,,0.00,Wunderground v.1.15,2014-02-12 12:40:00,
2014-02-12 03:45:00,-3.3,-14.4,29.96,North,356,1.0,3.0,58,0.00,,,0.00,Wunderground v.1.15,2014-02-12 12:45:00,
2014-02-12 03:50:00,-3.5,-14.6,29.96,North,358,1.0,1.0,58,0.00,,,0.00,Wunderground v.1.15,2014-02-12 12:50:00,
2014-02-12 03:55:00,-3.7,-14.8,29.96,NE,54,1.0,2.0,58,0.00,,,0.00,Wunderground v.1.15,2014-02-12 12:55:00,
2014-02-12 04:05:00,-3.5,-14.6,29.97,ENE,63,4.0,4.0,58,0.00,,,0.00,Wunderground v.1.15,2014-02-12 13:05:00,
2014-02-12 04:15:00,-3.5,-15.0,29.96,NNE,30,2.0,4.0,57,0.00,,,0.00,Wunderground v.1.15,2014-02-12 13:15:00,
2014-02-12 04:25:00,-3.7,-15.1,29.96,SE,145,2.0,5.0,57,0.00,,,0.00,Wunderground v.1.15,2014-02-12 13:25:00,
2014-02-12 04:30:00,-3.9,-15.7,29.96,East,92,2.0,2.0,56,0.00,,,0.00,Wunderground v.1.15,2014-02-12 13:30:00,
2014-02-12 04:40:00,-4.1,-15.5,29.96,North,355,0.0,0.0,57,0.00,,,0.00,Wunderground v.1.15,2014-02-12 13:40:00,
2014-02-12 04:45:00,-3.9,-15.7,29.95,NE,56,1.0,1.0,56,0.00,,,0.00,Wunderground v.1.15,2014-02-12 13:45:00,
2014-02-12 04:50:00,-4.1,-15.9,29.95,NE,56,1.0,1.0,56,0.00,,,0.00,Wunderground v.1.15,2014-02-12 13:50:00,
2014-02-12 05:00:00,-4.1,-15.9,29.94,NE,54,0.0,0.0,56,0.00,,,0.00,Wunderground v.1.15,2014-02-12 14:00:00,
2014-02-12 05:10:00,-3.9,-15.7,29.94,East,101,1.0,1.0,56,0.00,,,0.00,Wunderground v.1.15,2014-02-12 14:10:00,
2014-02-12 05:20:00,-4.8,-16.5,29.94,East,81,2.0,2.0,56,0.00,,,0.00,Wunderground v.1.15,2014-02-12 14:20:00,
2014-02-12 05:30:00,-5.2,-16.9,29.94,NE,35,2.0,2.0,56,0.00,,,0.00,Wunderground v.1.15,2014-02-12 14:30:00,
2014-02-12 05:40:00,-5.4,-17.4,29.94,ENE,59,3.0,6.0,55,0.00,,,0.00,Wunderground v.1.15,2014-02-12 14:40:00,
2014-02-12 05:50:00,-6.1,-17.8,29.93,NNE,23,7.0,9.0,56,0.00,,,0.00,Wunderground v.1.15,2014-02-12 14:50:00,
2014-02-12 06:00:00,-6.5,-17.8,29.93,ENE,60,10.0,10.0,57,0.00,,,0.00,Wunderground v.1.15,2014-02-12 15:00:00,
2014-02-12 06:05:00,-7.0,-17.9,29.93,ENE,66,8.0,11.0,58,0.00,,,0.00,Wunderground v.1.15,2014-02-12 15:05:00,
2014-02-12 06:15:00,-6.5,-18.5,29.92,ENE,67,9.0,9.0,55,0.00,,,0.00,Wunderground v.1.15,2014-02-12 15:15:00,
2014-02-12 06:25:00,-6.5,-18.1,29.92,ENE,66,9.0,14.0,56,0.00,,,0.00,Wunderground v.1.15,2014-02-12 15:25:00,
2014-02-12 06:30:00,-6.5,-18.1,29.91,ENE,73,10.0,10.0,56,0.00,,,0.00,Wunderground v.1.15,2014-02-12 15:30:00,
2014-02-12 06:40:00,-6.3,-18.3,29.91,East,98,9.0,9.0,55,0.00,,,0.00,Wunderground v.1.15,2014-02-12 15:40:00,
2014-02-12 06:45:00,-6.3,-17.6,29.91,ENE,68,8.0,11.0,57,0.00,,,0.00,Wunderground v.1.15,2014-02-12 15:45:00,
2014-02-12 06:50:00,-6.1,-17.8,29.91,SE,132,8.0,15.0,56,0.00,,,0.00,Wunderground v.1.15,2014-02-12 15:50:00,
2014-02-12 07:00:00,-5.6,-16.9,29.90,NE,43,9.0,9.0,57,0.00,,,0.00,Wunderground v.1.15,2014-02-12 16:00:00,
2014-02-12 07:05:00,-6.1,-17.4,29.90,East,95,4.0,9.0,57,0.00,,,0.00,Wunderground v.1.15,2014-02-12 16:05:00,
2014-02-12 07:10:00,-5.6,-16.6,29.90,East,81,2.0,7.0,58,0.00,,,0.00,Wunderground v.1.15,2014-02-12 16:10:00,
2014-02-12 07:15:00,-5.4,-16.7,29.89,ESE,104,6.0,10.0,57,0.00,,,0.00,Wunderground v.1.15,2014-02-12 16:15:00,
2014-02-12 07:20:00,-5.4,-16.7,29.89,East,92,10.0,11.0,57,0.00,,,0.00,Wunderground v.1.15,2014-02-12 16:20:00,
2014-02-12 07:30:00,-5.9,-16.9,29.88,ENE,68,10.0,10.0,58,0.00,,,0.00,Wunderground v.1.15,2014-02-12 16:30:00,
2014-02-12 07:40:00,-5.6,-16.6,29.88,East,84,10.0,10.0,58,0.00,,,0.00,Wunderground v.1.15,2014-02-12 16:40:00,
2014-02-12 07:50:00,-5.6,-16.9,29.87,NE,56,10.0,10.0,57,0.00,,,0.00,Wunderground v.1.15,2014-02-12 16:50:00,
2014-02-12 08:00:00,-5.6,-17.6,29.88,ENE,63,9.0,9.0,55,0.00,,,0.00,Wunderground v.1.15,2014-02-12 17:00:00,
2014-02-12 08:10:00,-5.4,-17.1,29.88,ENE,67,11.0,12.0,56,0.00,,,0.00,Wunderground v.1.15,2014-02-12 17:10:00,
2014-02-12 08:15:00,-5.4,-17.4,29.86,North,11,11.0,12.0,55,0.00,,,0.00,Wunderground v.1.15,2014-02-12 17:15:00,
2014-02-12 08:25:00,-5.2,-17.6,29.86,East,94,14.0,16.0,54,0.00,,,0.00,Wunderground v.1.15,2014-02-12 17:25:00,
2014-02-12 08:35:00,-7.0,-18.3,29.87,ESE,112,11.0,12.0,57,0.00,,,0.00,Wunderground v.1.15,2014-02-12 17:35:00,
2014-02-12 08:45:00,-7.2,-18.1,29.86,ENE,76,11.0,11.0,58,0.00,,,0.00,Wunderground v.1.15,2014-02-12 17:45:00,
2014-02-12 08:55:00,-7.2,-18.4,29.86,ENE,71,11.0,16.0,57,0.00,,,0.00,Wunderground v.1.15,2014-02-12 17:55:00,
2014-02-12 09:05:00,-7.2,-18.1,29.87,NNE,29,9.0,11.0,58,0.00,,,0.00,Wunderground v.1.15,2014-02-12 18:05:00,
2014-02-12 09:10:00,-6.3,-17.3,29.87,NE,36,8.0,14.0,58,0.00,,,0.00,Wunderground v.1.15,2014-02-12 18:10:00,
2014-02-12 09:20:00,-7.7,-18.9,29.88,East,101,10.0,10.0,57,0.00,,,0.00,Wunderground v.1.15,2014-02-12 18:20:00,
2014-02-12 09:25:00,-8.2,-19.1,29.88,East,90,10.0,11.0,58,0.00,,,0.00,Wunderground v.1.15,2014-02-12 18:25:00,
2014-02-12 09:35:00,-7.7,-18.2,29.87,ENE,63,7.0,11.0,59,0.00,,,0.00,Wunderground v.1.15,2014-02-12 18:35:00,
2014-02-12 09:40:00,-7.5,-18.4,29.87,ENE,78,7.0,7.0,58,0.00,,,0.00,Wunderground v.1.15,2014-02-12 18:40:00,
2014-02-12 09:50:00,-7.9,-18.1,29.86,NE,50,5.0,12.0,60,0.00,,,0.00,Wunderground v.1.15,2014-02-12 18:50:00,
2014-02-12 10:00:00,-7.7,-18.9,29.86,ENE,61,10.0,13.0,57,0.00,,,0.00,Wunderground v.1.15,2014-02-12 19:00:00,
2014-02-12 10:10:00,-7.7,-18.9,29.86,NE,53,12.0,14.0,57,0.00,,,0.00,Wunderground v.1.15,2014-02-12 19:10:00,
2014-02-12 10:20:00,-7.7,-18.6,29.85,ENE,57,14.0,14.0,58,0.00,,,0.00,Wunderground v.1.15,2014-02-12 19:20:00,
2014-02-12 10:30:00,-7.7,-18.6,29.84,ENE,61,15.0,15.0,58,0.00,,,0.00,Wunderground v.1.15,2014-02-12 19:30:00,
2014-02-12 10:40:00,-7.2,-18.1,29.84,NE,49,14.0,14.0,58,0.00,,,0.00,Wunderground v.1.15,2014-02-12 19:40:00,
2014-02-12 10:50:00,-7.5,-18.4,29.84,ENE,74,14.0,14.0,58,0.00,,,0.00,Wunderground v.1.15,2014-02-12 19:50:00,
2014-02-12 11:00:00,-7.5,-18.1,29.83,ENE,74,15.0,15.0,59,0.00,,,0.00,Wunderground v.1.15,2014-02-12 20:00:00,
2014-02-12 11:10:00,-7.2,-17.8,29.83,ENE,73,9.0,9.0,59,0.00,,,0.00,Wunderground v.1.15,2014-02-12 20:10:00,
2014-02-12 11:20:00,-7.0,-16.9,29.85,ENE,66,4.0,7.0,61,0.00,,,0.00,Wunderground v.1.15,2014-02-12 20:20:00,
2014-02-12 11:30:00,-7.0,-16.9,29.85,East,92,4.0,10.0,61,0.00,,,0.00,Wunderground v.1.15,2014-02-12 20:30:00,
2014-02-12 11:40:00,-7.9,-18.1,29.85,East,91,6.0,6.0,60,0.00,,,0.00,Wunderground v.1.15,2014-02-12 20:40:00,
2014-02-12 11:50:00,-7.7,-17.9,29.84,ENE,77,6.0,6.0,60,0.00,,,0.00,Wunderground v.1.15,2014-02-12 20:50:00,
2014-02-12 12:00:00,-7.7,-18.2,29.84,ENE,66,10.0,11.0,59,0.00,,,0.00,Wunderground v.1.15,2014-02-12 21:00:00,
2014-02-12 12:10:00,-8.2,-18.7,29.84,ENE,57,12.0,13.0,59,0.00,,,0.00,Wunderground v.1.15,2014-02-12 21:10:00,
2014-02-12 12:20:00,-7.9,-18.8,29.83,ENE,77,11.0,11.0,58,0.00,,,0.00,Wunderground v.1.15,2014-02-12 21:20:00,
2014-02-12 12:30:00,-8.4,-19.2,29.83,East,81,12.0,12.0,58,0.00,,,0.00,Wunderground v.1.15,2014-02-12 21:30:00,
2014-02-12 12:35:00,-8.4,-19.6,29.83,NNE,26,13.0,20.0,57,0.00,,,0.00,Wunderground v.1.15,2014-02-12 21:35:00,
2014-02-12 12:45:00,-8.4,-19.2,29.82,NE,50,14.0,18.0,58,0.00,,,0.00,Wunderground v.1.15,2014-02-12 21:45:00,
2014-02-12 12:55:00,-8.4,-19.6,29.82,ENE,66,14.0,14.0,57,0.00,,,0.00,Wunderground v.1.15,2014-02-12 21:55:00,
2014-02-12 13:00:00,-8.4,-19.2,29.81,ENE,73,14.0,14.0,58,0.00,,,0.00,Wunderground v.1.15,2014-02-12 22:00:00,
2014-02-12 13:10:00,-8.9,-20.1,29.81,NE,39,15.0,27.0,57,0.00,,,0.00,Wunderground v.1.15,2014-02-12 22:10:00,
2014-02-12 13:15:00,-8.6,-19.4,29.81,East,91,16.0,27.0,58,0.00,,,0.00,Wunderground v.1.15,2014-02-12 22:15:00,
2014-02-12 13:20:00,-8.4,-19.9,29.81,NE,37,16.0,16.0,56,0.00,,,0.00,Wunderground v.1.15,2014-02-12 22:20:00,
2014-02-12 13:30:00,-8.6,-19.4,29.80,NE,46,17.0,18.0,58,0.00,,,0.00,Wunderground v.1.15,2014-02-12 22:30:00,
2014-02-12 13:40:00,-8.4,-19.2,29.80,ENE,67,16.0,17.0,58,0.00,,,0.00,Wunderground v.1.15,2014-02-12 22:40:00,
2014-02-12 13:50:00,-8.6,-20.5,29.80,NE,52,17.0,19.0,55,0.00,,,0.00,Wunderground v.1.15,2014-02-12 22:50:00,
2014-02-12 14:00:00,-8.6,-21.2,29.81,NE,39,14.0,14.0,53,0.00,,,0.00,Wunderground v.1.15,2014-02-12 23:00:00,
2014-02-12 14:05:00,-8.6,-20.8,29.81,NE,37,12.0,14.0,54,0.00,,,0.00,Wunderground v.1.15,2014-02-12 23:05:00,
2014-02-12 14:15:00,-8.6,-20.5,29.81,ENE,74,11.0,20.0,55,0.00,,,0.00,Wunderground v.1.15,2014-02-12 23:15:00,
2014-02-12 14:25:00,-8.4,-20.6,29.81,ENE,63,10.0,13.0,54,0.00,,,0.00,Wunderground v.1.15,2014-02-12 23:25:00,
2014-02-12 14:35:00,-8.6,-20.5,29.80,NNE,28,8.0,10.0,55,0.00,,,0.00,Wunderground v.1.15,2014-02-12 23:35:00,
2014-02-12 14:45:00,-8.9,-21.4,29.79,NNE,25,11.0,17.0,53,0.00,,,0.00,Wunderground v.1.15,2014-02-12 23:45:00,
2014-02-12 14:55:00,-8.6,-20.1,29.79,NE,53,12.0,13.0,56,0.00,,,0.00,Wunderground v.1.15,2014-02-12 23:55:00,
2014-02-12 15:00:00,-8.6,-20.5,29.78,ENE,67,11.0,12.0,55,0.00,,,0.00,Wunderground v.1.15,2014-02-13 00:00:00,
2014-02-12 15:10:00,-9.3,-21.1,29.78,ENE,57,12.0,16.0,55,0.00,,,0.00,Wunderground v.1.15,2014-02-13 00:10:00,
2014-02-12 15:15:00,-9.3,-21.1,29.78,ENE,78,12.0,16.0,55,0.00,,,0.00,Wunderground v.1.15,2014-02-13 00:15:00,
2014-02-12 15:25:00,-9.6,-21.4,29.78,ENE,67,11.0,12.0,55,0.00,,,0.00,Wunderground v.1.15,2014-02-13 00:25:00,
2014-02-12 15:40:00,-9.8,-22.3,29.77,NE,37,13.0,19.0,53,0.00,,,0.00,Wunderground v.1.15,2014-02-13 00:40:00,
2014-02-12 15:50:00,-10.0,-21.4,29.76,NE,50,15.0,15.0,56,0.00,,,0.00,Wunderground v.1.15,2014-02-13 00:50:00,
2014-02-12 16:00:00,-9.8,-20.9,29.75,ENE,57,15.0,15.0,57,0.00,,,0.00,Wunderground v.1.15,2014-02-13 01:00:00,
2014-02-12 16:10:00,-9.8,-20.6,29.75,NE,54,11.0,12.0,58,0.00,,,0.00,Wunderground v.1.15,2014-02-13 01:10:00,
2014-02-12 16:15:00,-10.0,-21.1,29.75,NE,46,10.0,12.0,57,0.00,,,0.00,Wunderground v.1.15,2014-02-13 01:15:00,
2014-02-12 16:25:00,-10.3,-21.4,29.75,ENE,70,12.0,20.0,57,0.00,,,0.00,Wunderground v.1.15,2014-02-13 01:25:00,
2014-02-12 16:35:00,-10.5,-21.2,29.75,ENE,71,13.0,19.0,58,0.00,,,0.00,Wunderground v.1.15,2014-02-13 01:35:00,
2014-02-12 16:45:00,-10.7,-21.1,29.74,ENE,59,14.0,17.0,59,0.00,,,0.00,Wunderground v.1.15,2014-02-13 01:45:00,
2014-02-12 16:55:00,-11.0,-21.4,29.74,NE,50,13.0,20.0,59,0.00,,,0.00,Wunderground v.1.15,2014-02-13 01:55:00,
2014-02-12 17:05:00,-11.2,-21.6,29.74,NE,49,11.0,12.0,59,0.00,,,0.00,Wunderground v.1.15,2014-02-13 02:05:00,
2014-02-12 17:15:00,-11.7,-21.4,29.74,ENE,64,12.0,14.0,61,0.00,,,0.00,Wunderground v.1.15,2014-02-13 02:15:00,
2014-02-12 17:25:00,-12.0,-21.4,29.74,ENE,61,11.0,11.0,62,0.00,,,0.00,Wunderground v.1.15,2014-02-13 02:25:00,
2014-02-12 17:30:00,-12.0,-21.7,29.74,ENE,70,11.0,14.0,61,0.00,,,0.00,Wunderground v.1.15,2014-02-13 02:30:00,
2014-02-12 17:35:00,-12.0,-21.4,29.74,ENE,59,11.0,14.0,62,0.00,,,0.00,Wunderground v.1.15,2014-02-13 02:35:00,
2014-02-12 17:45:00,-11.7,-20.8,29.74,ENE,67,10.0,18.0,63,0.00,,,0.00,Wunderground v.1.15,2014-02-13 02:45:00,
2014-02-12 17:55:00,-11.7,-21.1,29.74,NE,54,9.0,11.0,62,0.00,,,0.00,Wunderground v.1.15,2014-02-13 02:55:00,
2014-02-12 18:05:00,-11.7,-21.1,29.74,NE,47,10.0,12.0,62,0.00,,,0.00,Wunderground v.1.15,2014-02-13 03:05:00,
2014-02-12 18:10:00,-12.0,-21.4,29.74,NE,36,10.0,10.0,62,0.00,,,0.00,Wunderground v.1.15,2014-02-13 03:10:00,
2014-02-12 18:20:00,-12.0,-21.1,29.73,ENE,63,8.0,8.0,63,0.00,,,0.00,Wunderground v.1.15,2014-02-13 03:20:00,
2014-02-12 18:25:00,-12.0,-20.8,29.73,NE,56,8.0,9.0,64,0.00,,,0.00,Wunderground v.1.15,2014-02-13 03:25:00,
2014-02-12 18:35:00,-12.0,-20.2,29.72,NNE,25,9.0,9.0,66,0.00,,,0.00,Wunderground v.1.15,2014-02-13 03:35:00,
2014-02-12 18:45:00,-12.0,-20.2,29.72,NE,54,8.0,12.0,66,0.00,,,0.00,Wunderground v.1.15,2014-02-13 03:45:00,
2014-02-12 18:55:00,-12.0,-20.2,29.72,ENE,63,11.0,14.0,66,0.00,,,0.00,Wunderground v.1.15,2014-02-13 03:55:00,
2014-02-12 19:00:00,-12.0,-20.2,29.71,ENE,67,11.0,12.0,66,0.00,,,0.00,Wunderground v.1.15,2014-02-13 04:00:00,
2014-02-12 19:10:00,-12.0,-19.9,29.71,NE,56,13.0,18.0,67,0.00,,,0.00,Wunderground v.1.15,2014-02-13 04:10:00,
2014-02-12 19:15:00,-12.2,-20.1,29.71,NE,52,14.0,18.0,67,0.00,,,0.00,Wunderground v.1.15,2014-02-13 04:15:00,
2014-02-12 19:25:00,-12.0,-20.2,29.71,NNE,28,12.0,14.0,66,0.00,,,0.00,Wunderground v.1.15,2014-02-13 04:25:00,
2014-02-12 19:35:00,-12.0,-20.2,29.70,ENE,78,11.0,15.0,66,0.00,,,0.00,Wunderground v.1.15,2014-02-13 04:35:00,
2014-02-12 19:45:00,-12.2,-20.4,29.69,ENE,68,13.0,13.0,66,0.00,,,0.00,Wunderground v.1.15,2014-02-13 04:45:00,
2014-02-12 19:55:00,-12.0,-20.5,29.69,NE,50,14.0,14.0,65,0.00,,,0.00,Wunderground v.1.15,2014-02-13 04:55:00,
2014-02-12 20:00:00,-12.2,-20.4,29.68,NE,39,13.0,13.0,66,0.00,,,0.00,Wunderground v.1.15,2014-02-13 05:00:00,
2014-02-12 20:05:00,-12.2,-20.4,29.68,NE,37,13.0,13.0,66,0.00,,,0.00,Wunderground v.1.15,2014-02-13 05:05:00,
2014-02-12 20:10:00,-12.2,-20.4,29.68,NE,54,12.0,12.0,66,0.00,,,0.00,Wunderground v.1.15,2014-02-13 05:10:00,
2014-02-12 20:20:00,-12.2,-20.4,29.69,NNE,28,12.0,12.0,66,0.00,,,0.00,Wunderground v.1.15,2014-02-13 05:20:00,
2014-02-12 20:25:00,-12.2,-20.1,29.69,ENE,71,12.0,12.0,67,0.00,,,0.00,Wunderground v.1.15,2014-02-13 05:25:00,
2014-02-12 20:30:00,-12.2,-20.1,29.68,ENE,57,11.0,13.0,67,0.00,,,0.00,Wunderground v.1.15,2014-02-13 05:30:00,
2014-02-12 20:35:00,-12.2,-20.1,29.68,ENE,67,11.0,16.0,67,0.00,,,0.00,Wunderground v.1.15,2014-02-13 05:35:00,
2014-02-12 20:40:00,-12.2,-20.1,29.68,NE,50,10.0,10.0,67,0.00,,,0.00,Wunderground v.1.15,2014-02-13 05:40:00,
2014-02-12 20:45:00,-12.2,-20.4,29.68,NE,47,11.0,11.0,66,0.00,,,0.00,Wunderground v.1.15,2014-02-13 05:45:00,
2014-02-12 20:55:00,-12.2,-20.4,29.68,ENE,66,12.0,12.0,66,0.00,,,0.00,Wunderground v.1.15,2014-02-13 05:55:00,
2014-02-12 21:00:00,-12.2,-20.1,29.67,ENE,77,11.0,12.0,67,0.00,,,0.00,Wunderground v.1.15,2014-02-13 06:00:00,
2014-02-12 21:10:00,-12.0,-19.9,29.67,ENE,71,12.0,12.0,67,0.00,,,0.00,Wunderground v.1.15,2014-02-13 06:10:00,
2014-02-12 21:20:00,-11.7,-19.6,29.67,ENE,64,11.0,11.0,67,0.00,,,0.00,Wunderground v.1.15,2014-02-13 06:20:00,
2014-02-12 21:30:00,-11.7,-19.9,29.67,NE,46,10.0,12.0,66,0.00,,,0.00,Wunderground v.1.15,2014-02-13 06:30:00,
2014-02-12 21:35:00,-11.7,-19.6,29.67,NE,36,9.0,12.0,67,0.00,,,0.00,Wunderground v.1.15,2014-02-13 06:35:00,
2014-02-12 21:40:00,-11.7,-20.2,29.67,NE,42,9.0,9.0,65,0.00,,,0.00,Wunderground v.1.15,2014-02-13 06:40:00,
2014-02-12 21:50:00,-11.7,-21.1,29.67,ENE,64,8.0,10.0,62,0.00,,,0.00,Wunderground v.1.15,2014-02-13 06:50:00,
2014-02-12 21:55:00,-11.7,-21.1,29.67,NNE,33,7.0,10.0,62,0.00,,,0.00,Wunderground v.1.15,2014-02-13 06:55:00,
2014-02-12 22:05:00,-11.7,-21.1,29.67,ENE,78,3.0,5.0,62,0.00,,,0.00,Wunderground v.1.15,2014-02-13 07:05:00,
2014-02-12 22:15:00,-11.2,-20.9,29.67,NE,53,6.0,13.0,61,0.00,,,0.00,Wunderground v.1.15,2014-02-13 07:15:00,
2014-02-12 22:20:00,-11.5,-21.5,29.67,NE,53,8.0,8.0,60,0.00,,,0.00,Wunderground v.1.15,2014-02-13 07:20:00,
2014-02-12 22:25:00,-11.5,-21.5,29.67,NNE,23,7.0,10.0,60,0.00,,,0.00,Wunderground v.1.15,2014-02-13 07:25:00,
2014-02-12 22:35:00,-12.0,-22.3,29.67,NNE,26,9.0,10.0,59,0.00,,,0.00,Wunderground v.1.15,2014-02-13 07:35:00,
2014-02-12 22:45:00,-12.0,-22.6,29.66,NNE,12,11.0,16.0,58,0.00,,,0.00,Wunderground v.1.15,2014-02-13 07:45:00,
2014-02-12 22:50:00,-12.2,-21.9,29.66,North,9,10.0,10.0,61,0.00,,,0.00,Wunderground v.1.15,2014-02-13 07:50:00,
2014-02-12 23:00:00,-12.5,-23.1,29.67,North,359,6.0,6.0,58,0.00,,,0.00,Wunderground v.1.15,2014-02-13 08:00:00,
2014-02-12 23:10:00,-12.5,-21.9,29.67,NNW,348,5.0,13.0,62,0.00,,,0.00,Wunderground v.1.15,2014-02-13 08:10:00,
2014-02-12 23:20:00,-12.2,-21.9,29.67,North,355,11.0,18.0,61,0.00,,,0.00,Wunderground v.1.15,2014-02-13 08:20:00,
2014-02-12 23:25:00,-12.5,-22.5,29.67,NNW,347,12.0,18.0,60,0.00,,,0.00,Wunderground v.1.15,2014-02-13 08:25:00,
2014-02-12 23:35:00,-12.5,-23.1,29.65,NNE,25,10.0,12.0,58,0.00,,,0.00,Wunderground v.1.15,2014-02-13 08:35:00,
2014-02-12 23:45:00,-13.0,-23.6,29.64,NNE,26,10.0,11.0,58,0.00,,,0.00,Wunderground v.1.15,2014-02-13 08:45:00,
2014-02-12 23:55:00,-12.8,-23.1,29.64,North,9,6.0,7.0,59,0.00,,,0.00,Wunderground v.1.15,2014-02-13 08:55:00,